Preview of NWS' New Version of Forecast
This preview is not operational and should not be used for support decisions.

Regional Weather Roundup (RWR)

Issued by National Weather Service (NWS)

                            
000
ASUS42 KTBW 152117
RWRFL 
FLORIDA REGIONAL WEATHER ROUNDUP
NATIONAL WEATHER SERVICE TAMPA BAY RUSKIN FL
500 PM EDT MON OCT 15 2018

NOTE: "FAIR" INDICATES FEW OR NO CLOUDS BELOW 12,000 FEET WITH NO
SIGNIFICANT WEATHER AND/OR OBSTRUCTIONS TO VISIBILITY.

FLZ001>010-012>015-112-114-115-152200-
PANHANDLE FLORIDA
  
CITY           SKY/WX    TMP DP  RH WIND       PRES   REMARKS
PENSACOLA      FAIR      86  75  69 SE10      30.04S HX  95           
PENSACOLA NAS  PTSUNNY   85  78  80 S9        30.04S HX  96           
MILTON NAS     FAIR      86  75  69 S10       30.04S HX  95           
CRESTVIEW      FAIR      88  72  58 S7        30.06R                  
DUKE FIELD     PTSUNNY   87  72  60 S10       30.05R                  
VALPARAISO     MOSUNNY   85  76  72 SW9       30.05S HX  95           
MARY ESTHER    MOSUNNY   84  77  79 S8        30.04S                  
PANAMA CITY    MOSUNNY  N/A N/A N/A S9        30.04                   
TYNDALL AFB    FAIR      85  76  74 S8        30.06S                  

STATION/POSITION SKY/WX   TEMP    WIND        PRES    WAVE   SWELL
                          AIR SEA DIR/SP/G            HT/PER HT/PER
                          (F)     (DEG/KT/KT) (MB)    (FT/S) (FT/S)
30.1N   87.6W              82     130/  6/  8 1017.4
29.2N   88.2W                 83  150/ 10/ 12 1017.1R   3/ 5   2/ 6
PANAMA CITY BEAC           82 84  170/  6/  7 1018.1F
TOWER C                    81     150/  8/  8 1018.3R

$$
FLZ011-016>038-118-127-128-134-139-239-152200-
NORTH FLORIDA
  
CITY           SKY/WX    TMP DP  RH WIND       PRES   REMARKS
TALLAHASSEE    FAIR      90  72  55 SE7       30.05S HX  97           
PERRY          FAIR      91  74  57 W6        30.06S HX 100           
CROSS CITY     PTSUNNY   90  70  52 SE3       30.05S HX  95           
LAKE CITY      FAIR      88  68  51 CALM      30.07S                  
GAINESVILLE    FAIR      91  70  49 E5        30.08S HX  96           
MAYPORT NAS    PTSUNNY   83  77  82 E12       30.08S                  
JACKSONVILLE   FAIR      85  73  67 E12       30.07R                  
JAX NAS        FAIR      87  76  69 E9        30.08R HX  97           
JAX CECIL      PTSUNNY   88  70  55 VRB5      30.06S                  
ST AUGUSTINE   FAIR      84  75  74 E9        30.09S                  
PALM COAST     SUNNY     86  73  66 E8        30.08R                  

STATION/POSITION SKY/WX   TEMP    WIND        PRES    WAVE   SWELL
                          AIR SEA DIR/SP/G            HT/PER HT/PER
                          (F)     (DEG/KT/KT) (MB)    (FT/S) (FT/S)
SHELL POINT      NOT AVBL
KEATON BEACH               81     250/  7/  7 1018.3S
CEDAR KEY                  83     260/  7/  8 1018.0R
FERNANDINA                        100/  5/ 10   N/A
30.7N   81.3W                 82                N/A     3/ 6
MAYPORT                    82 82  100/  8/ 11 1019.3R
31.4N   80.9W              80 82  120/ 10/ 12 1019.0F   3/ 7   3/ 7
ST AUGUSTINE               82 84  100/  8/  8 1019.0F

$$
FLZ040-043>046-052-053-057-058-063-144-152200-
INTERIOR CENTRAL FLORIDA
  
CITY           SKY/WX    TMP DP  RH WIND       PRES   REMARKS
OCALA          FAIR      92  70  48 CALM      30.06S HX  97           
LEESBURG       PTSUNNY   90  73  57 E9        30.06S HX  98           
SANFORD        FAIR      87  75  67 E12       30.06S HX  96           
ORLANDO EXEC   FAIR      91  72  53 E9        30.05S HX  98           
ORLANDO INTL   FAIR      90  73  57 E9        30.05S HX  98           
KISSIMMEE      FAIR      91  73  55 E10       30.06S HX  99           
WINTER HAVEN   FAIR      92  72  51 E8        30.06S HX  99           
LAKELAND       MOSUNNY   90  70  51 E6        30.05F HX  95           
SEBRING        FAIR      93  70  46 E9        30.04R HX  99           
OKEECHOBEE     PTSUNNY   86  72  62 E6        30.04R                  

$$
FLZ041-047-054-059-064-141-147-152200-
EAST CENTRAL FLORIDA
  
CITY           SKY/WX    TMP DP  RH WIND       PRES   REMARKS
ORMOND BEACH   MOSUNNY   84  75  74 E9        30.08S                  
DAYTONA BEACH  PTSUNNY   83  76  79 E8        30.08S                  
DELAND         LGT RAIN  81  77  89 E10       30.08R                  
NEW SMYRNA BEA MOSUNNY   84  75  74 E9        30.09S                  
JFK SPACE CTR  FAIR      86  75  68 SE7       30.07S HX  95           
TITUSVILLE     MOSUNNY  N/A N/A N/A E6        30.07S                  
CAPE CANAVERAL FAIR      86  73  65 SE7       30.06S                  
PATRICK AFB    FAIR      86  74  67 E10       30.07S                  
MELBOURNE      FAIR      86  74  67 E14       30.07R                  
VERO BEACH       N/A     86  74  67 E10       30.07S                  
FT PIERCE      FAIR      86  73  65 E10       30.06S                  
STUART         MOSUNNY   84  73  70 SE9       30.07S                  

STATION/POSITION SKY/WX   TEMP    WIND        PRES    WAVE   SWELL
                          AIR SEA DIR/SP/G            HT/PER HT/PER
                          (F)     (DEG/KT/KT) (MB)    (FT/S) (FT/S)
28.5N   80.2W              83      90/  6/  8 1018.7F   3/ 6   3/ 6
28.9N   78.5W              83 84  110/  6/  8 1019.4S
TRIDENT PIER               86 84  100/  6/ 10 1019.8S
28.4N   80.5W                 84                N/A     2/ 6
27.5N   80.2W                 84                N/A     2/10

$$
FLZ050-056-061-142-242-148-248-149-249-151-251-155-255-
160-260-152200-
WEST CENTRAL FLORIDA
  
CITY           SKY/WX    TMP DP  RH WIND       PRES   REMARKS
BROOKSVILLE    FAIR      93  70  46 NE3       30.05S HX  99           
ST PETE CLEARW FAIR      90  71  53 N3        30.03S HX  96           
TAMPA INTL     PTSUNNY   90  73  58 E8        30.04S HX  98           
MACDILL AFB    FAIR      90  72  54 E7        30.04R HX  97           
ST PETERSBURG  PTSUNNY   90  72  55 CALM      30.02S HX  97           
SARASOTA       FAIR      86  77  74 W10       30.02S HX  97           
VENICE         NOT AVBL                                               

STATION/POSITION SKY/WX   TEMP    WIND        PRES    WAVE   SWELL
                          AIR SEA DIR/SP/G            HT/PER HT/PER
                          (F)     (DEG/KT/KT) (MB)    (FT/S) (FT/S)
CLEARWATER BEACH           84 84  320/  9/ 11 1017.5S
MIDDLE TAMPA BAY           85     270/  4/  5 1017.2S
VENICE                     85 84  310/  8/  9   N/A

$$
FLZ066-069-070-075>078-162-262-165-265-152200-
SOUTHWEST FLORIDA AND KEYS
  
CITY           SKY/WX    TMP DP  RH WIND       PRES   REMARKS
PUNTA GORDA    FAIR      92  71  50 E8        30.03F HX  98           
FT MYERS       PTSUNNY   91  72  53 E10       30.00S HX  98           
SOUTHWEST INTL PTSUNNY   92  73  53 E12       30.01R HX 100           
NAPLES         PTSUNNY   89  72  56 E14G21    30.00R HX  96           
IMMOKALEE      MOSUNNY   93  73  52 E12       30.01S HX 102           
MARATHON       FAIR      86  76  71 E15G21    30.00R HX  96           
KEY WEST NAS   FAIR      88  76  67 E18       29.99S HX  99           
KEY WEST INTL  FAIR      88  77  69 E16G22    29.99S HX 100           

STATION/POSITION SKY/WX   TEMP    WIND        PRES    WAVE   SWELL
                          AIR SEA DIR/SP/G            HT/PER HT/PER
                          (F)     (DEG/KT/KT) (MB)    (FT/S) (FT/S)
NAPLES                     88 84              1016.0R
26.0N   85.6W              82 82   90/ 10/ 12 1016.0R   3/ 6   2/ 6
DRY TORTUGAS               84      90/ 13/ 15 1015.5R
SAND KEY                   83                 1015.3R
SOMBRERO KEY               83      60/ 17/ 20 1015.1R
LONG KEY                   84 86  100/ 17/ 19 1015.9R
MOLASSES REEF              84 84   90/ 16/ 17 1016.3S

$$
FLZ067-068-071>074-168-172>174-152200-
SOUTHEAST FLORIDA 
  
CITY           SKY/WX    TMP DP  RH WIND       PRES   REMARKS
W PALM BEACH   FAIR      86  77  74 E12       30.06R HX  97           
BOCA RATON     MOSUNNY   86  77  74 SE12G21   30.04S HX  97           
FT LAUDER-EXEC FAIR      85  77  77 E16       30.04R HX  95           
FT LAUDERDALE  FAIR      85  78  80 E18       30.03R HX  96           
POMPANO BEACH  FAIR      87  75  67 E14       30.04R HX  96           
PEMBROKE PINES FAIR      88  76  67 E15G23    30.04S HX  99           
OPA LOCKA      FAIR      87  77  72 E14       30.03S HX  99           
MIAMI          FAIR      84  75  74 E16       30.03S                  
WEST KENDALL   FAIR      86  75  69 E15       30.02S HX  95           
HOMESTEAD      FAIR      86  75  70 E14       30.02R HX  95           

STATION/POSITION SKY/WX   TEMP    WIND        PRES    WAVE   SWELL
                          AIR SEA DIR/SP/G            HT/PER HT/PER
                          (F)     (DEG/KT/KT) (MB)    (FT/S) (FT/S)
VIRGINIA KEY               85 86   70/ 11/ 15 1016.6R
LAKE WORTH                 83 85  100/  9/ 12 1018.7R
FOWEY ROCKS                83 83   70/ 18/ 20 1017.4R
SETTLEMENT POINT           84      70/ 14/ 16 1017.9R

$$